Year,Month,Day,Hour,Minute,Value (Times are PST for windspeed in km/hr)
2008,02,03,00,00,6.40
2008,02,03,00,01,8.50
2008,02,03,00,02,8.50
2008,02,03,00,03,7.50
2008,02,03,00,04,5.80
2008,02,03,00,05,5.10
2008,02,03,00,06,6.50
2008,02,03,00,07,6.40
2008,02,03,00,08,5.10
2008,02,03,00,09,6.70
2008,02,03,00,10,4.70
2008,02,03,00,11,5.10
2008,02,03,00,12,6.70
2008,02,03,00,13,6.80
2008,02,03,00,14,6.60
2008,02,03,00,15,5.10
2008,02,03,00,16,4.70
2008,02,03,00,17,4.50
2008,02,03,00,18,7.10
2008,02,03,00,19,6.90
2008,02,03,00,20,5.40
2008,02,03,00,21,5.60
2008,02,03,00,22,7.00
2008,02,03,00,23,7.80
2008,02,03,00,24,9.90
2008,02,03,00,25,6.00
2008,02,03,00,26,6.40
2008,02,03,00,27,6.40
2008,02,03,00,28,6.30
2008,02,03,00,29,6.20
2008,02,03,00,30,5.80
2008,02,03,00,31,8.10
2008,02,03,00,32,7.50
2008,02,03,00,33,7.60
2008,02,03,00,34,8.00
2008,02,03,00,35,6.00
2008,02,03,00,36,5.70
2008,02,03,00,37,6.40
2008,02,03,00,38,7.00
2008,02,03,00,39,5.50
2008,02,03,00,40,4.80
2008,02,03,00,41,6.20
2008,02,03,00,42,5.50
2008,02,03,00,43,8.20
2008,02,03,00,44,6.00
2008,02,03,00,45,7.00
2008,02,03,00,46,7.00
2008,02,03,00,47,6.90
2008,02,03,00,48,6.60
2008,02,03,00,49,7.40
2008,02,03,00,50,7.10
2008,02,03,00,51,7.70
2008,02,03,00,52,7.70
2008,02,03,00,53,8.00
2008,02,03,00,54,7.50
2008,02,03,00,55,6.00
2008,02,03,00,56,7.30
2008,02,03,00,57,7.70
2008,02,03,00,58,5.90
2008,02,03,00,59,5.80
2008,02,03,01,00,4.40
2008,02,03,01,01,4.70
2008,02,03,01,02,6.50
2008,02,03,01,03,5.90
2008,02,03,01,04,4.70
2008,02,03,01,05,4.90
2008,02,03,01,06,2.50
2008,02,03,01,07,3.00
2008,02,03,01,08,4.70
2008,02,03,01,09,4.40
2008,02,03,01,10,5.40
2008,02,03,01,11,4.70
2008,02,03,01,12,2.90
2008,02,03,01,13,3.90
2008,02,03,01,14,4.70
2008,02,03,01,15,4.20
2008,02,03,01,16,6.60
2008,02,03,01,17,5.30
2008,02,03,01,18,4.10
2008,02,03,01,19,3.70
2008,02,03,01,20,5.60
2008,02,03,01,21,6.20
2008,02,03,01,22,4.60
2008,02,03,01,23,4.80
2008,02,03,01,24,4.80
2008,02,03,01,25,5.90
2008,02,03,01,26,7.30
2008,02,03,01,27,6.10
2008,02,03,01,28,3.70
2008,02,03,01,29,6.40
2008,02,03,01,30,6.50
2008,02,03,01,31,5.50
2008,02,03,01,32,5.70
2008,02,03,01,33,6.40
2008,02,03,01,34,5.60
2008,02,03,01,35,5.10
2008,02,03,01,36,4.60
2008,02,03,01,37,4.20
2008,02,03,01,38,5.50
2008,02,03,01,39,5.00
2008,02,03,01,40,4.60
2008,02,03,01,41,5.50
2008,02,03,01,42,4.20
2008,02,03,01,43,5.70
2008,02,03,01,44,5.50
2008,02,03,01,45,4.10
2008,02,03,01,46,4.80
2008,02,03,01,47,5.70
2008,02,03,01,48,6.00
2008,02,03,01,49,5.00
2008,02,03,01,50,8.50
2008,02,03,01,51,5.10
2008,02,03,01,52,6.10
2008,02,03,01,53,5.60
2008,02,03,01,54,2.80
2008,02,03,01,55,3.80
2008,02,03,01,56,4.90
2008,02,03,01,57,6.00
2008,02,03,01,58,5.60
2008,02,03,01,59,6.20
2008,02,03,02,00,4.70
2008,02,03,02,01,5.40
2008,02,03,02,02,5.70
2008,02,03,02,03,5.50
2008,02,03,02,04,4.70
2008,02,03,02,05,5.30
2008,02,03,02,06,4.50
2008,02,03,02,07,3.40
2008,02,03,02,08,5.80
2008,02,03,02,09,4.70
2008,02,03,02,10,3.80
2008,02,03,02,11,3.80
2008,02,03,02,12,6.30
2008,02,03,02,13,4.60
2008,02,03,02,14,7.30
2008,02,03,02,15,4.90
2008,02,03,02,16,5.90
2008,02,03,02,17,3.90
2008,02,03,02,18,4.50
2008,02,03,02,19,4.80
2008,02,03,02,20,5.70
2008,02,03,02,21,3.90
2008,02,03,02,22,4.70
2008,02,03,02,23,5.20
2008,02,03,02,24,5.50
2008,02,03,02,25,6.10
2008,02,03,02,26,6.10
2008,02,03,02,27,4.40
2008,02,03,02,28,5.50
2008,02,03,02,29,5.90
2008,02,03,02,30,5.30
2008,02,03,02,31,6.40
2008,02,03,02,32,5.20
2008,02,03,02,33,5.50
2008,02,03,02,34,5.60
2008,02,03,02,35,3.40
2008,02,03,02,36,3.80
2008,02,03,02,37,5.70
2008,02,03,02,38,5.40
2008,02,03,02,39,5.00
2008,02,03,02,40,6.30
2008,02,03,02,41,4.40
2008,02,03,02,42,4.20
2008,02,03,02,43,5.00
2008,02,03,02,44,5.70
2008,02,03,02,45,5.70
2008,02,03,02,46,4.80
2008,02,03,02,47,5.10
2008,02,03,02,48,5.90
2008,02,03,02,49,4.90
2008,02,03,02,50,4.20
2008,02,03,02,51,5.00
2008,02,03,02,52,5.50
2008,02,03,02,53,6.50
2008,02,03,02,54,5.50
2008,02,03,02,55,4.70
2008,02,03,02,56,6.60
2008,02,03,02,57,5.10
2008,02,03,02,58,5.70
2008,02,03,02,59,5.50
2008,02,03,03,00,7.00
2008,02,03,03,01,5.20
2008,02,03,03,02,5.70
2008,02,03,03,03,6.00
2008,02,03,03,04,5.60
2008,02,03,03,05,4.10
2008,02,03,03,06,6.10
2008,02,03,03,07,6.50
2008,02,03,03,08,7.70
2008,02,03,03,09,6.00
2008,02,03,03,10,4.40
2008,02,03,03,11,7.70
2008,02,03,03,12,8.50
2008,02,03,03,13,8.40
2008,02,03,03,14,4.90
2008,02,03,03,15,4.50
2008,02,03,03,16,7.50
2008,02,03,03,17,5.70
2008,02,03,03,18,7.30
2008,02,03,03,19,7.00
2008,02,03,03,20,7.90
2008,02,03,03,21,6.80
2008,02,03,03,22,6.90
2008,02,03,03,23,6.70
2008,02,03,03,24,6.30
2008,02,03,03,25,8.00
2008,02,03,03,26,7.60
2008,02,03,03,27,5.70
2008,02,03,03,28,6.90
2008,02,03,03,29,7.80
2008,02,03,03,30,6.70
2008,02,03,03,31,5.30
2008,02,03,03,32,7.00
2008,02,03,03,33,5.00
2008,02,03,03,34,4.70
2008,02,03,03,35,5.60
2008,02,03,03,36,6.90
2008,02,03,03,37,6.40
2008,02,03,03,38,5.60
2008,02,03,03,39,8.00
2008,02,03,03,40,6.00
2008,02,03,03,41,6.80
2008,02,03,03,42,6.10
2008,02,03,03,43,6.10
2008,02,03,03,44,5.60
2008,02,03,03,45,7.60
2008,02,03,03,46,5.10
2008,02,03,03,47,5.40
2008,02,03,03,48,6.80
2008,02,03,03,49,7.20
2008,02,03,03,50,5.40
2008,02,03,03,51,4.50
2008,02,03,03,52,7.80
2008,02,03,03,53,4.70
2008,02,03,03,54,6.80
2008,02,03,03,55,7.10
2008,02,03,03,56,7.00
2008,02,03,03,57,6.40
2008,02,03,03,58,6.10
2008,02,03,03,59,7.10
2008,02,03,04,00,5.30
2008,02,03,04,01,4.70
2008,02,03,04,02,5.50
2008,02,03,04,03,7.70
2008,02,03,04,04,3.70
2008,02,03,04,05,6.60
2008,02,03,04,06,5.70
2008,02,03,04,07,3.70
2008,02,03,04,08,3.40
2008,02,03,04,09,4.50
2008,02,03,04,10,3.60
2008,02,03,04,11,4.20
2008,02,03,04,12,4.20
2008,02,03,04,13,5.40
2008,02,03,04,14,4.70
2008,02,03,04,15,6.70
2008,02,03,04,16,5.50
2008,02,03,04,17,3.80
2008,02,03,04,18,6.80
2008,02,03,04,19,5.50
2008,02,03,04,20,6.10
2008,02,03,04,21,5.80
2008,02,03,04,22,6.00
2008,02,03,04,23,5.50
2008,02,03,04,24,9.40
2008,02,03,04,25,7.40
2008,02,03,04,26,6.80
2008,02,03,04,27,5.20
2008,02,03,04,28,4.10
2008,02,03,04,29,4.50
2008,02,03,04,30,6.30
2008,02,03,04,31,5.80
2008,02,03,04,32,4.90
2008,02,03,04,33,5.30
2008,02,03,04,34,5.60
2008,02,03,04,35,6.10
2008,02,03,04,36,7.40
2008,02,03,04,37,7.30
2008,02,03,04,38,5.60
2008,02,03,04,39,6.40
2008,02,03,04,40,6.70
2008,02,03,04,41,5.80
2008,02,03,04,42,5.30
2008,02,03,04,43,5.20
2008,02,03,04,44,8.60
2008,02,03,04,45,9.10
2008,02,03,04,46,7.90
2008,02,03,04,47,10.60
2008,02,03,04,48,5.90
2008,02,03,04,49,6.50
2008,02,03,04,50,8.70
2008,02,03,04,51,6.50
2008,02,03,04,52,6.50
2008,02,03,04,53,6.40
2008,02,03,04,54,4.60
2008,02,03,04,55,5.30
2008,02,03,04,56,9.20
2008,02,03,04,57,6.90
2008,02,03,04,58,7.50
2008,02,03,04,59,5.70
2008,02,03,05,00,5.70
2008,02,03,05,01,5.40
2008,02,03,05,02,7.10
2008,02,03,05,03,6.20
2008,02,03,05,04,6.40
2008,02,03,05,05,8.20
2008,02,03,05,06,4.90
2008,02,03,05,07,4.60
2008,02,03,05,08,5.90
2008,02,03,05,09,4.70
2008,02,03,05,10,5.70
2008,02,03,05,11,6.00
2008,02,03,05,12,6.60
2008,02,03,05,13,5.80
2008,02,03,05,14,7.30
2008,02,03,05,15,4.60
2008,02,03,05,16,4.60
2008,02,03,05,17,6.60
2008,02,03,05,18,4.90
2008,02,03,05,19,7.60
2008,02,03,05,20,6.00
2008,02,03,05,21,8.00
2008,02,03,05,22,5.60
2008,02,03,05,23,6.20
2008,02,03,05,24,7.90
2008,02,03,05,25,5.90
2008,02,03,05,26,5.10
2008,02,03,05,27,4.80
2008,02,03,05,28,4.20
2008,02,03,05,29,5.50
2008,02,03,05,30,6.40
2008,02,03,05,31,6.10
2008,02,03,05,32,5.70
2008,02,03,05,33,5.80
2008,02,03,05,34,6.30
2008,02,03,05,35,6.40
2008,02,03,05,36,6.20
2008,02,03,05,37,6.40
2008,02,03,05,38,6.40
2008,02,03,05,39,5.20
2008,02,03,05,40,5.70
2008,02,03,05,41,3.40
2008,02,03,05,42,4.70
2008,02,03,05,43,3.70
2008,02,03,05,44,5.40
2008,02,03,05,45,4.70
2008,02,03,05,46,4.60
2008,02,03,05,47,7.00
2008,02,03,05,48,4.40
2008,02,03,05,49,4.00
2008,02,03,05,50,5.50
2008,02,03,05,51,5.90
2008,02,03,05,52,6.70
2008,02,03,05,53,6.20
2008,02,03,05,54,5.90
2008,02,03,05,55,5.60
2008,02,03,05,56,6.00
2008,02,03,05,57,4.80
2008,02,03,05,58,3.70
2008,02,03,05,59,3.30
2008,02,03,06,00,6.50
2008,02,03,06,01,4.60
2008,02,03,06,02,3.70
2008,02,03,06,03,4.90
2008,02,03,06,04,5.50
2008,02,03,06,05,5.10
2008,02,03,06,06,6.10
2008,02,03,06,07,3.30
2008,02,03,06,08,2.90
2008,02,03,06,09,4.50
2008,02,03,06,10,4.50
2008,02,03,06,11,5.10
2008,02,03,06,12,5.40
2008,02,03,06,13,4.40
2008,02,03,06,14,5.20
2008,02,03,06,15,6.70
2008,02,03,06,16,3.60
2008,02,03,06,17,4.20
2008,02,03,06,18,4.10
2008,02,03,06,19,5.50
2008,02,03,06,20,4.90
2008,02,03,06,21,4.10
2008,02,03,06,22,3.90
2008,02,03,06,23,4.20
2008,02,03,06,24,4.90
2008,02,03,06,25,6.30
2008,02,03,06,26,5.50
2008,02,03,06,27,4.00
2008,02,03,06,28,3.20
2008,02,03,06,29,4.30
2008,02,03,06,30,5.00
2008,02,03,06,31,5.50
2008,02,03,06,32,3.00
2008,02,03,06,33,6.80
2008,02,03,06,34,4.40
2008,02,03,06,35,4.00
2008,02,03,06,36,5.00
2008,02,03,06,37,3.80
2008,02,03,06,38,3.60
2008,02,03,06,39,4.50
2008,02,03,06,40,2.60
2008,02,03,06,41,5.80
2008,02,03,06,42,5.00
2008,02,03,06,43,4.50
2008,02,03,06,44,3.70
2008,02,03,06,45,4.30
2008,02,03,06,46,6.20
2008,02,03,06,47,5.50
2008,02,03,06,48,5.00
2008,02,03,06,49,5.90
2008,02,03,06,50,4.60
2008,02,03,06,51,3.40
2008,02,03,06,52,4.90
2008,02,03,06,53,5.00
2008,02,03,06,54,4.10
2008,02,03,06,55,4.50
2008,02,03,06,56,3.80
2008,02,03,06,57,4.20
2008,02,03,06,58,3.10
2008,02,03,06,59,6.00
2008,02,03,07,00,5.50
2008,02,03,07,01,5.30
2008,02,03,07,02,6.80
2008,02,03,07,03,5.80
2008,02,03,07,04,7.40
2008,02,03,07,05,5.00
2008,02,03,07,06,4.80
2008,02,03,07,07,3.70
2008,02,03,07,08,2.90
2008,02,03,07,09,3.80
2008,02,03,07,10,5.00
2008,02,03,07,11,5.40
2008,02,03,07,12,4.00
2008,02,03,07,13,5.30
2008,02,03,07,14,4.60
2008,02,03,07,15,3.60
2008,02,03,07,16,4.70
2008,02,03,07,17,3.40
2008,02,03,07,18,3.90
2008,02,03,07,19,4.80
2008,02,03,07,20,4.60
2008,02,03,07,21,4.30
2008,02,03,07,22,4.80
2008,02,03,07,23,4.40
2008,02,03,07,24,6.00
2008,02,03,07,25,4.00
2008,02,03,07,26,3.80
2008,02,03,07,27,2.70
2008,02,03,07,28,4.10
2008,02,03,07,29,3.20
2008,02,03,07,30,4.50
2008,02,03,07,31,4.00
2008,02,03,07,32,3.70
2008,02,03,07,33,2.50
2008,02,03,07,34,3.10
2008,02,03,07,35,6.00
2008,02,03,07,36,3.80
2008,02,03,07,37,4.30
2008,02,03,07,38,4.10
2008,02,03,07,39,4.60
2008,02,03,07,40,5.20
2008,02,03,07,41,5.00
2008,02,03,07,42,3.70
2008,02,03,07,43,5.40
2008,02,03,07,44,5.50
2008,02,03,07,45,3.70
2008,02,03,07,46,4.70
2008,02,03,07,47,4.70
2008,02,03,07,48,5.10
2008,02,03,07,49,3.40
2008,02,03,07,50,4.80
2008,02,03,07,51,4.80
2008,02,03,07,52,5.10
2008,02,03,07,53,4.70
2008,02,03,07,54,4.80
2008,02,03,07,55,6.40
2008,02,03,07,56,6.30
2008,02,03,07,57,5.30
2008,02,03,07,58,5.40
2008,02,03,07,59,4.70
2008,02,03,08,00,5.90
2008,02,03,08,01,6.20
2008,02,03,08,02,4.30
2008,02,03,08,03,4.30
2008,02,03,08,04,3.70
2008,02,03,08,05,3.60
2008,02,03,08,06,5.00
2008,02,03,08,07,4.60
2008,02,03,08,08,5.90
2008,02,03,08,09,4.10
2008,02,03,08,10,4.40
2008,02,03,08,11,4.10
2008,02,03,08,12,3.50
2008,02,03,08,13,3.70
2008,02,03,08,14,4.70
2008,02,03,08,15,5.10
2008,02,03,08,16,4.70
2008,02,03,08,17,4.10
2008,02,03,08,18,3.20
2008,02,03,08,19,4.00
2008,02,03,08,20,5.50
2008,02,03,08,21,4.00
2008,02,03,08,22,5.50
2008,02,03,08,23,5.50
2008,02,03,08,24,4.40
2008,02,03,08,25,5.70
2008,02,03,08,26,7.10
2008,02,03,08,27,5.00
2008,02,03,08,28,5.50
2008,02,03,08,29,5.00
2008,02,03,08,30,4.80
2008,02,03,08,31,5.50
2008,02,03,08,32,5.30
2008,02,03,08,33,5.20
2008,02,03,08,34,6.10
2008,02,03,08,35,6.40
2008,02,03,08,36,3.20
2008,02,03,08,37,4.20
2008,02,03,08,38,3.00
2008,02,03,08,39,4.80
2008,02,03,08,40,2.90
2008,02,03,08,41,4.00
2008,02,03,08,42,4.00
2008,02,03,08,43,2.40
2008,02,03,08,44,6.00
2008,02,03,08,45,5.20
2008,02,03,08,46,5.30
2008,02,03,08,47,4.00
2008,02,03,08,48,4.50
2008,02,03,08,49,3.70
2008,02,03,08,50,3.20
2008,02,03,08,51,4.80
2008,02,03,08,52,6.00
2008,02,03,08,53,4.80
2008,02,03,08,54,4.70
2008,02,03,08,55,4.70
2008,02,03,08,56,4.10
2008,02,03,08,57,5.50
2008,02,03,08,58,5.40
2008,02,03,08,59,4.20
2008,02,03,09,00,5.20
2008,02,03,09,01,5.00
2008,02,03,09,02,4.40
2008,02,03,09,03,3.20
2008,02,03,09,04,3.30
2008,02,03,09,05,5.70
2008,02,03,09,06,5.40
2008,02,03,09,07,3.70
2008,02,03,09,08,4.30
2008,02,03,09,09,5.30
2008,02,03,09,10,4.00
2008,02,03,09,11,5.10
2008,02,03,09,12,5.30
2008,02,03,09,13,5.00
2008,02,03,09,14,5.30
2008,02,03,09,15,8.00
2008,02,03,09,16,7.90
2008,02,03,09,17,6.40
2008,02,03,09,18,5.20
2008,02,03,09,19,6.60
2008,02,03,09,20,10.50
2008,02,03,09,21,7.50
2008,02,03,09,22,4.40
2008,02,03,09,23,7.80
2008,02,03,09,24,8.70
2008,02,03,09,25,5.70
2008,02,03,09,26,8.20
2008,02,03,09,27,5.90
2008,02,03,09,28,6.20
2008,02,03,09,29,9.10
2008,02,03,09,30,8.80
2008,02,03,09,31,7.60
2008,02,03,09,32,6.40
2008,02,03,09,33,7.20
2008,02,03,09,34,8.10
2008,02,03,09,35,9.80
2008,02,03,09,36,7.50
2008,02,03,09,37,7.20
2008,02,03,09,38,7.50
2008,02,03,09,39,6.90
2008,02,03,09,40,9.10
2008,02,03,09,41,8.70
2008,02,03,09,42,6.00
2008,02,03,09,43,7.40
2008,02,03,09,44,7.00
2008,02,03,09,45,6.20
2008,02,03,09,46,7.50
2008,02,03,09,47,9.10
2008,02,03,09,48,4.60
2008,02,03,09,49,6.80
2008,02,03,09,50,8.10
2008,02,03,09,51,7.20
2008,02,03,09,52,5.50
2008,02,03,09,53,9.10
2008,02,03,09,54,8.10
2008,02,03,09,55,12.10
2008,02,03,09,56,8.10
2008,02,03,09,57,3.70
2008,02,03,09,58,4.90
2008,02,03,09,59,5.90
2008,02,03,10,00,9.80
2008,02,03,10,01,6.00
2008,02,03,10,02,9.20
2008,02,03,10,03,7.20
2008,02,03,10,04,4.80
2008,02,03,10,05,6.70
2008,02,03,10,06,5.90
2008,02,03,10,07,10.20
2008,02,03,10,08,5.40
2008,02,03,10,09,7.30
2008,02,03,10,10,6.90
2008,02,03,10,11,6.40
2008,02,03,10,12,10.70
2008,02,03,10,13,8.70
2008,02,03,10,14,9.20
2008,02,03,10,15,7.50
2008,02,03,10,16,4.90
2008,02,03,10,17,5.80
2008,02,03,10,18,4.40
2008,02,03,10,19,5.10
2008,02,03,10,20,13.20
2008,02,03,10,21,12.30
2008,02,03,10,22,6.80
2008,02,03,10,23,10.80
2008,02,03,10,24,8.90
2008,02,03,10,25,6.90
2008,02,03,10,26,6.10
2008,02,03,10,27,5.90
2008,02,03,10,28,7.90
2008,02,03,10,29,6.30
2008,02,03,10,30,7.80
2008,02,03,10,31,5.50
2008,02,03,10,32,9.30
2008,02,03,10,33,9.20
2008,02,03,10,34,9.40
2008,02,03,10,35,7.50
2008,02,03,10,36,7.40
2008,02,03,10,37,10.00
2008,02,03,10,38,12.20
2008,02,03,10,39,9.20
2008,02,03,10,40,7.20
2008,02,03,10,41,9.70
2008,02,03,10,42,9.00
2008,02,03,10,43,7.20
2008,02,03,10,44,5.80
2008,02,03,10,45,9.10
2008,02,03,10,46,5.10
2008,02,03,10,47,7.10
2008,02,03,10,48,8.70
2008,02,03,10,49,6.40
2008,02,03,10,50,6.20
2008,02,03,10,51,5.00
2008,02,03,10,52,7.80
2008,02,03,10,53,9.30
2008,02,03,10,54,10.10
2008,02,03,10,55,9.50
2008,02,03,10,56,9.20
2008,02,03,10,57,9.10
2008,02,03,10,58,12.40
2008,02,03,10,59,8.90
2008,02,03,11,00,8.70
2008,02,03,11,01,5.40
2008,02,03,11,02,8.60
2008,02,03,11,03,8.10
2008,02,03,11,04,5.90
2008,02,03,11,05,6.40
2008,02,03,11,06,8.50
2008,02,03,11,07,6.30
2008,02,03,11,08,3.90
2008,02,03,11,09,5.10
2008,02,03,11,10,9.90
2008,02,03,11,11,10.60
2008,02,03,11,12,9.50
2008,02,03,11,13,5.80
2008,02,03,11,14,7.00
2008,02,03,11,15,9.00
2008,02,03,11,16,10.50
2008,02,03,11,17,7.10
2008,02,03,11,18,7.50
2008,02,03,11,19,8.40
2008,02,03,11,20,10.60
2008,02,03,11,21,9.40
2008,02,03,11,22,9.00
2008,02,03,11,23,9.90
2008,02,03,11,24,5.00
2008,02,03,11,25,4.70
2008,02,03,11,26,4.70
2008,02,03,11,27,6.50
2008,02,03,11,28,5.10
2008,02,03,11,29,5.50
2008,02,03,11,30,5.70
2008,02,03,11,31,4.40
2008,02,03,11,32,4.70
2008,02,03,11,33,5.20
2008,02,03,11,34,7.80
2008,02,03,11,35,5.80
2008,02,03,11,36,4.20
2008,02,03,11,37,7.30
2008,02,03,11,38,9.70
2008,02,03,11,39,7.60
2008,02,03,11,40,5.00
2008,02,03,11,41,4.70
2008,02,03,11,42,5.50
2008,02,03,11,43,8.20
2008,02,03,11,44,5.40
2008,02,03,11,45,8.70
2008,02,03,11,46,5.70
2008,02,03,11,47,6.70
2008,02,03,11,48,7.60
2008,02,03,11,49,5.90
2008,02,03,11,50,6.50
2008,02,03,11,51,5.60
2008,02,03,11,52,4.70
2008,02,03,11,53,4.60
2008,02,03,11,54,6.40
2008,02,03,11,55,6.90
2008,02,03,11,56,8.20
2008,02,03,11,57,9.00
2008,02,03,11,58,7.40
2008,02,03,11,59,6.30
2008,02,03,12,00,6.40
2008,02,03,12,01,7.20
2008,02,03,12,02,5.20
2008,02,03,12,03,12.70
2008,02,03,12,04,8.20
2008,02,03,12,05,8.40
2008,02,03,12,06,8.20
2008,02,03,12,07,9.50
2008,02,03,12,08,4.30
2008,02,03,12,09,6.80
2008,02,03,12,10,5.80
2008,02,03,12,11,3.60
2008,02,03,12,12,6.70
2008,02,03,12,13,8.10
2008,02,03,12,14,8.20
2008,02,03,12,15,7.40
2008,02,03,12,16,7.60
2008,02,03,12,17,7.00
2008,02,03,12,18,5.70
2008,02,03,12,19,5.10
2008,02,03,12,20,5.50
2008,02,03,12,21,5.00
2008,02,03,12,22,8.20
2008,02,03,12,23,3.10
2008,02,03,12,24,5.40
2008,02,03,12,25,10.20
2008,02,03,12,26,5.70
2008,02,03,12,27,5.10
2008,02,03,12,28,5.70
2008,02,03,12,29,4.80
2008,02,03,12,30,3.60
2008,02,03,12,31,10.30
2008,02,03,12,32,9.30
2008,02,03,12,33,4.80
2008,02,03,12,34,7.60
2008,02,03,12,35,7.80
2008,02,03,12,36,7.70
2008,02,03,12,37,4.30
2008,02,03,12,38,9.20
2008,02,03,12,39,10.00
2008,02,03,12,40,6.90
2008,02,03,12,41,5.10
2008,02,03,12,42,5.20
2008,02,03,12,43,5.90
2008,02,03,12,44,6.30
2008,02,03,12,45,7.20
2008,02,03,12,46,6.80
2008,02,03,12,47,6.70
2008,02,03,12,48,7.40
2008,02,03,12,49,6.10
2008,02,03,12,50,9.30
2008,02,03,12,51,8.90
2008,02,03,12,52,7.00
2008,02,03,12,53,6.40
2008,02,03,12,54,6.40
2008,02,03,12,55,5.20
2008,02,03,12,56,5.70
2008,02,03,12,57,5.80
2008,02,03,12,58,7.10
2008,02,03,12,59,5.00
2008,02,03,13,00,6.10
2008,02,03,13,01,6.50
2008,02,03,13,02,3.10
2008,02,03,13,03,4.40
2008,02,03,13,04,3.90
2008,02,03,13,05,5.80
2008,02,03,13,06,6.80
2008,02,03,13,07,5.50
2008,02,03,13,08,3.30
2008,02,03,13,09,7.30
2008,02,03,13,10,7.50
2008,02,03,13,11,7.60
2008,02,03,13,12,6.20
2008,02,03,13,13,5.70
2008,02,03,13,14,5.30
2008,02,03,13,15,7.10
2008,02,03,13,16,7.80
2008,02,03,13,17,6.10
2008,02,03,13,18,5.10
2008,02,03,13,19,7.40
2008,02,03,13,20,5.40
2008,02,03,13,21,7.00
2008,02,03,13,22,9.20
2008,02,03,13,23,5.90
2008,02,03,13,24,6.30
2008,02,03,13,25,8.50
2008,02,03,13,26,6.60
2008,02,03,13,27,5.10
2008,02,03,13,28,7.90
2008,02,03,13,29,5.90
2008,02,03,13,30,8.80
2008,02,03,13,31,10.30
2008,02,03,13,32,7.60
2008,02,03,13,33,5.90
2008,02,03,13,34,4.60
2008,02,03,13,35,3.50
2008,02,03,13,36,4.30
2008,02,03,13,37,4.70
2008,02,03,13,38,5.00
2008,02,03,13,39,4.70
2008,02,03,13,40,3.90
2008,02,03,13,41,3.30
2008,02,03,13,42,5.50
2008,02,03,13,43,7.60
2008,02,03,13,44,5.10
2008,02,03,13,45,4.30
2008,02,03,13,46,2.40
2008,02,03,13,47,4.80
2008,02,03,13,48,5.30
2008,02,03,13,49,4.40
2008,02,03,13,50,4.30
2008,02,03,13,51,6.40
2008,02,03,13,52,2.40
2008,02,03,13,53,6.20
2008,02,03,13,54,7.20
2008,02,03,13,55,6.50
2008,02,03,13,56,6.80
2008,02,03,13,57,6.20
2008,02,03,13,58,5.00
2008,02,03,13,59,5.60
2008,02,03,14,00,3.60
2008,02,03,14,01,4.20
2008,02,03,14,02,3.60
2008,02,03,14,03,7.20
2008,02,03,14,04,4.90
2008,02,03,14,05,3.40
2008,02,03,14,06,6.30
2008,02,03,14,07,4.00
2008,02,03,14,08,4.90
2008,02,03,14,09,5.50
2008,02,03,14,10,6.40
2008,02,03,14,11,7.00
2008,02,03,14,12,7.00
2008,02,03,14,13,5.60
2008,02,03,14,14,4.60
2008,02,03,14,15,4.20
2008,02,03,14,16,3.20
2008,02,03,14,17,4.60
2008,02,03,14,18,5.80
2008,02,03,14,19,6.80
2008,02,03,14,20,4.40
2008,02,03,14,21,8.20
2008,02,03,14,22,7.50
2008,02,03,14,23,4.40
2008,02,03,14,24,4.90
2008,02,03,14,25,3.20
2008,02,03,14,26,2.90
2008,02,03,14,27,3.40
2008,02,03,14,28,3.00
2008,02,03,14,29,4.80
2008,02,03,14,30,3.70
2008,02,03,14,31,3.10
2008,02,03,14,32,2.80
2008,02,03,14,33,3.80
2008,02,03,14,34,2.50
2008,02,03,14,35,7.20
2008,02,03,14,36,6.30
2008,02,03,14,37,5.60
2008,02,03,14,38,6.20
2008,02,03,14,39,5.50
2008,02,03,14,40,7.00
2008,02,03,14,41,3.90
2008,02,03,14,42,8.40
2008,02,03,14,43,4.80
2008,02,03,14,44,4.50
2008,02,03,14,45,5.60
2008,02,03,14,46,6.50
2008,02,03,14,47,5.50
2008,02,03,14,48,6.60
2008,02,03,14,49,8.90
2008,02,03,14,50,10.10
2008,02,03,14,51,5.60
2008,02,03,14,52,4.50
2008,02,03,14,53,7.40
2008,02,03,14,54,2.90
2008,02,03,14,55,2.70
2008,02,03,14,56,3.10
2008,02,03,14,57,5.20
2008,02,03,14,58,3.70
2008,02,03,14,59,6.70
2008,02,03,15,00,6.40
2008,02,03,15,01,8.00
2008,02,03,15,02,6.90
2008,02,03,15,03,7.30
2008,02,03,15,04,10.60
2008,02,03,15,05,8.60
2008,02,03,15,06,5.20
2008,02,03,15,07,8.50
2008,02,03,15,08,4.50
2008,02,03,15,09,6.00
2008,02,03,15,10,5.60
2008,02,03,15,11,5.90
2008,02,03,15,12,4.80
2008,02,03,15,13,4.30
2008,02,03,15,14,4.60
2008,02,03,15,15,5.10
2008,02,03,15,16,4.50
2008,02,03,15,17,7.60
2008,02,03,15,18,5.10
2008,02,03,15,19,4.70
2008,02,03,15,20,2.90
2008,02,03,15,21,4.00
2008,02,03,15,22,5.20
2008,02,03,15,23,3.00
2008,02,03,15,24,6.10
2008,02,03,15,25,5.10
2008,02,03,15,26,3.40
2008,02,03,15,27,4.50
2008,02,03,15,28,6.40
2008,02,03,15,29,5.10
2008,02,03,15,30,5.00
2008,02,03,15,31,4.70
2008,02,03,15,32,5.10
2008,02,03,15,33,5.20
2008,02,03,15,34,4.80
2008,02,03,15,35,4.10
2008,02,03,15,36,4.10
2008,02,03,15,37,1.90
2008,02,03,15,38,5.10
2008,02,03,15,39,3.60
2008,02,03,15,40,3.10
2008,02,03,15,41,4.00
2008,02,03,15,42,2.60
2008,02,03,15,43,3.70
2008,02,03,15,44,3.90
2008,02,03,15,45,4.10
2008,02,03,15,46,4.60
2008,02,03,15,47,4.00
2008,02,03,15,48,6.80
2008,02,03,15,49,7.00
2008,02,03,15,50,7.20
2008,02,03,15,51,5.50
2008,02,03,15,52,3.70
2008,02,03,15,53,1.30
2008,02,03,15,54,3.70
2008,02,03,15,55,7.90
2008,02,03,15,56,6.50
2008,02,03,15,57,4.90
2008,02,03,15,58,6.40
2008,02,03,15,59,5.50
2008,02,03,16,00,3.70
2008,02,03,16,01,4.00
2008,02,03,16,02,7.20
2008,02,03,16,03,4.40
2008,02,03,16,04,3.70
2008,02,03,16,05,5.70
2008,02,03,16,06,5.90
2008,02,03,16,07,3.40
2008,02,03,16,08,6.70
2008,02,03,16,09,6.80
2008,02,03,16,10,6.60
2008,02,03,16,11,6.60
2008,02,03,16,12,5.70
2008,02,03,16,13,5.10
2008,02,03,16,14,5.60
2008,02,03,16,15,4.20
2008,02,03,16,16,3.60
2008,02,03,16,17,3.90
2008,02,03,16,18,1.90
2008,02,03,16,19,2.40
2008,02,03,16,20,1.40
2008,02,03,16,21,1.40
2008,02,03,16,22,2.30
2008,02,03,16,23,5.10
2008,02,03,16,24,4.80
2008,02,03,16,25,3.90
2008,02,03,16,26,4.50
2008,02,03,16,27,5.00
2008,02,03,16,28,4.90
2008,02,03,16,29,4.50
2008,02,03,16,30,4.70
2008,02,03,16,31,5.10
2008,02,03,16,32,3.90
2008,02,03,16,33,3.90
2008,02,03,16,34,3.40
2008,02,03,16,35,2.30
2008,02,03,16,36,3.50
2008,02,03,16,37,4.10
2008,02,03,16,38,3.30
2008,02,03,16,39,4.30
2008,02,03,16,40,2.20
2008,02,03,16,41,1.20
2008,02,03,16,42,1.80
2008,02,03,16,43,2.90
2008,02,03,16,44,1.50
2008,02,03,16,45,0.90
2008,02,03,16,46,0.60
2008,02,03,16,47,2.40
2008,02,03,16,48,3.20
2008,02,03,16,49,2.60
2008,02,03,16,50,1.50
2008,02,03,16,51,2.50
2008,02,03,16,52,1.90
2008,02,03,16,53,1.10
2008,02,03,16,54,0.90
2008,02,03,16,55,1.40
2008,02,03,16,56,0.10
2008,02,03,16,57,1.30
2008,02,03,16,58,0.10
2008,02,03,16,59,0.00
2008,02,03,17,00,0.00
2008,02,03,17,01,0.00
2008,02,03,17,02,0.00
2008,02,03,17,03,0.00
2008,02,03,17,04,0.20
2008,02,03,17,05,0.10
2008,02,03,17,06,0.00
2008,02,03,17,07,0.20
2008,02,03,17,08,0.20
2008,02,03,17,09,0.20
2008,02,03,17,10,0.00
2008,02,03,17,11,0.00
2008,02,03,17,12,0.10
2008,02,03,17,13,0.00
2008,02,03,17,14,0.00
2008,02,03,17,15,0.00
2008,02,03,17,16,0.00
2008,02,03,17,17,0.00
2008,02,03,17,18,0.00
2008,02,03,17,19,0.20
2008,02,03,17,20,0.00
2008,02,03,17,21,0.80
2008,02,03,17,22,2.40
2008,02,03,17,23,2.30
2008,02,03,17,24,2.30
2008,02,03,17,25,2.80
2008,02,03,17,26,2.50
2008,02,03,17,27,1.90
2008,02,03,17,28,3.70
2008,02,03,17,29,3.40
2008,02,03,17,30,3.40
2008,02,03,17,31,3.30
2008,02,03,17,32,3.50
2008,02,03,17,33,3.30
2008,02,03,17,34,3.80
2008,02,03,17,35,3.70
2008,02,03,17,36,3.50
2008,02,03,17,37,3.00
2008,02,03,17,38,3.00
2008,02,03,17,39,3.30
2008,02,03,17,40,3.30
2008,02,03,17,41,4.30
2008,02,03,17,42,4.50
2008,02,03,17,43,4.00
2008,02,03,17,44,4.60
2008,02,03,17,45,4.30
2008,02,03,17,46,4.10
2008,02,03,17,47,3.60
2008,02,03,17,48,4.90
2008,02,03,17,49,4.40
2008,02,03,17,50,5.30
2008,02,03,17,51,5.00
2008,02,03,17,52,5.60
2008,02,03,17,53,5.20
2008,02,03,17,54,5.10
2008,02,03,17,55,5.80
2008,02,03,17,56,5.70
2008,02,03,17,57,5.00
2008,02,03,17,58,3.30
2008,02,03,17,59,2.90
2008,02,03,18,00,3.60
2008,02,03,18,01,4.50
2008,02,03,18,02,4.30
2008,02,03,18,03,4.00
2008,02,03,18,04,4.40
2008,02,03,18,05,3.90